Location: ??????????
(54.4061°N, 22.6114°E)
Time: 23:18:30
(UTC+00:00)

STARLINK-74 - Pass Details

Date: 23 October 2019
Orbit: 548 x 551 km, 53.0° (Epoch: 15 November)

Event Time Altitude Azimuth Distance (km) Brightness Sun altitude
Rises 16:09:20 0° 266° (W) 2,717 9.6 -8.6°
Reaches altitude 10° 16:11:34 10° 265° (W) 1,824 8.0 -9.0°
Maximum altitude 16:15:42 75° 180° (S) 574 3.7 -9.6°
Enters shadow 16:19:18 13° 97° (E) 1,612 5.4 -10.1°
